GW2259 Weather Reports


Display with metric or nautical units.
time (UTC)temp
F
wind
direction
speed
MPH
gust
MPH
rain 1hr
in
rain 24hr
in
rain mn
in
humidity
%
barometer
mb
20260902103040 73 0 0.0 2.0 0.00 0.00 0.00 76 1016.3
20260902101541 73 0 1.0 4.0 0.00 0.00 0.00 77 1016.3
20260902100041 72 0 0.0 0.0 0.00 0.00 0.00 80 1016.3
20260902094542 72 0 0.0 1.0 0.00 0.00 0.00 79 1016.4
20260902093042 74 0 0.0 3.0 0.00 0.00 0.00 75 1016.4
20260902091541 75 141 3.0 4.0 0.00 0.00 0.00 75 1016.4
20260902090041 74 199 3.0 6.0 0.00 0.00 0.00 75 1016.2
20260902084536 74 140 3.0 5.0 0.00 0.00 0.00 76 1016.3
20260902083035 74 115 3.0 4.0 0.00 0.00 0.00 75 1016.4
20260902081542 75 112 3.0 5.0 0.00 0.00 0.00 72 1016.4
20260902080043 75 109 2.0 4.0 0.00 0.00 0.00 72 1016.5
20260902074542 74 108 1.0 2.0 0.00 0.00 0.00 73 1016.5
20260902073036 74 0 0.0 0.0 0.00 0.00 0.00 73 1016.5
20260902071536 74 0 0.0 0.0 0.00 0.00 0.00 73 1016.5
20260902070043 74 0 0.0 2.0 0.00 0.00 0.00 73 1016.4
20260902064544 74 0 0.0 0.0 0.00 0.00 0.00 71 1016.5
20260902063039 75 0 0.0 2.0 0.00 0.00 0.00 70 1016.5
20260902061554 74 0 0.0 0.0 0.00 0.00 0.00 72 1016.4
20260902060055 75 0 0.0 0.0 0.00 0.00 0.00 70 1016.4
20260902054605 76 0 0.0 0.0 0.00 0.00 0.00 69 1016.3
20260902053057 76 0 0.0 0.0 0.00 0.00 0.00 67 1016.2
20260902051538 78 0 0.0 0.0 0.00 0.00 0.00 65 1016.3
20260902050045 78 0 0.0 0.0 0.00 0.00 0.00 64 1016.2
20260902044544 78 0 0.0 0.0 0.00 0.00 0.00 65 1016.2
20260902043045 79 0 0.0 0.0 0.00 0.00 0.00 63 1016.2
20260902041539 79 204 0.0 1.0 0.00 0.00 0.00 63 1016.2
20260902040048 79 0 0.0 3.0 0.00 0.00 0.00 62 1016.1
20260902034544 80 139 1.0 3.0 0.00 0.00 0.00 62 1016.1
20260902033043 80 124 2.0 3.0 0.00 0.00 0.00 61 1016.0
20260902031544 81 136 3.0 5.0 0.00 0.00 0.00 59 1015.7
20260902030039 81 115 3.0 4.0 0.00 0.00 0.00 59 1015.5
20260902024541 81 114 3.0 4.0 0.00 0.00 0.00 57 1015.4
20260902023050 81 120 3.0 4.0 0.00 0.00 0.00 57 1015.1
20260902021538 83 117 2.0 3.0 0.00 0.00 0.00 53 1014.7
20260902020038 84 94 2.0 3.0 0.00 0.00 0.00 51 1014.5
20260902014536 85 91 2.0 4.0 0.00 0.00 0.00 49 1014.3
20260902013052 85 100 2.0 3.0 0.00 0.00 0.00 47 1014.2
20260902011540 87 94 2.0 3.0 0.00 0.00 0.00 45 1014.0
20260902010038 89 108 1.0 4.0 0.00 0.00 0.00 43 1014.0
20260902004537 92 105 2.0 6.0 0.00 0.00 0.00 39 1014.0
20260902003043 94 96 5.0 10.0 0.00 0.00 0.00 35 1014.0
20260902001554 97 91 2.0 6.0 0.00 0.00 0.00 33 1013.9
20260902000044 98 103 3.0 7.0 0.00 0.00 0.00 31 1013.9
20260901234538 98 108 3.0 11.0 0.00 0.00 0.00 31 1014.0
20260901233038 98 57 6.0 8.0 0.00 0.00 0.00 30 1013.8
20260901231542 99 89 4.0 10.0 0.00 0.00 0.00 30 1013.8
20260901230041 99 131 2.0 7.0 0.00 0.00 0.00 28 1013.8
20260901224541 98 100 6.0 10.0 0.00 0.00 0.00 29 1013.7
20260901223046 99 136 4.0 12.0 0.00 0.00 0.00 28 1013.6
20260901221555 99 116 5.0 9.0 0.00 0.00 0.00 28 1013.8
20260901220041 98 3 1.0 6.0 0.00 0.00 0.00 30 1013.8
20260901214539 98 114 5.0 11.0 0.00 0.00 0.00 30 1014.1
20260901213040 97 63 4.0 10.0 0.00 0.00 0.00 32 1014.3
20260901211539 96 103 4.0 10.0 0.00 0.00 0.00 33 1014.5
20260901210044 96 53 4.0 11.0 0.00 0.00 0.00 34 1014.9
20260901204542 95 84 4.0 11.0 0.00 0.00 0.00 35 1015.1
20260901203038 96 95 6.0 12.0 0.00 0.00 0.00 34 1015.3
20260901201536 95 159 4.0 9.0 0.00 0.00 0.00 37 1015.5
20260901200042 96 58 6.0 11.0 0.00 0.00 0.00 35 1015.6
20260901194545 95 292 4.0 8.0 0.00 0.00 0.00 34 1015.7
20260901193048 94 277 3.0 11.0 0.00 0.00 0.00 36 1015.9
20260901191555 94 32 3.0 11.0 0.00 0.00 0.00 38 1016.0
20260901190038 93 35 4.0 12.0 0.00 0.00 0.00 39 1016.3
20260901184546 93 143 3.0 14.0 0.00 0.00 0.00 40 1016.6
20260901183048 92 120 4.0 11.0 0.00 0.00 0.00 40 1016.8
20260901181542 92 117 2.0 11.0 0.00 0.00 0.00 39 1017.1
20260901180040 92 127 2.0 8.0 0.00 0.00 0.00 43 1017.3
20260901174546 92 148 5.0 11.0 0.00 0.00 0.00 40 1017.5
20260901173055 91 115 1.0 9.0 0.00 0.00 0.00 42 1017.8
20260901171545 91 224 4.0 8.0 0.00 0.00 0.00 44 1017.8
20260901170045 90 0 3.0 11.0 0.00 0.00 0.00 43 1017.9
20260901164543 89 290 1.0 8.0 0.00 0.00 0.00 44 1018.0
20260901163043 89 165 3.0 9.0 0.00 0.00 0.00 45 1018.1
20260901161555 88 200 3.0 11.0 0.00 0.00 0.00 47 1018.2
20260901160042 87 155 4.0 8.0 0.00 0.00 0.00 47 1018.2
20260901154550 87 208 5.0 8.0 0.00 0.00 0.00 49 1018.3
20260901153050 86 222 4.0 7.0 0.00 0.00 0.00 50 1018.2
20260901151542 85 214 2.0 9.0 0.00 0.00 0.00 55 1018.1
20260901150044 85 222 3.0 8.0 0.00 0.00 0.00 57 1018.2
20260901144548 84 231 3.0 7.0 0.00 0.00 0.00 61 1018.2
20260901143047 83 198 4.0 7.0 0.00 0.00 0.00 63 1018.4
20260901141545 83 202 4.0 7.0 0.00 0.00 0.00 65 1018.5
20260901140037 82 0 1.0 3.0 0.00 0.00 0.00 69 1018.5
20260901134542 79 0 0.0 3.0 0.00 0.00 0.00 74 1018.5
20260901133040 79 0 0.0 1.0 0.00 0.00 0.00 75 1018.3
20260901131544 75 278 0.0 1.0 0.00 0.00 0.00 80 1018.3
20260901130052 75 0 0.0 0.0 0.00 0.00 0.00 81 1018.1
20260901124540 72 0 0.0 0.0 0.00 0.00 0.00 84 1017.8
20260901123042 70 123 0.0 1.0 0.00 0.00 0.00 87 1017.7
20260901121538 70 0 0.0 0.0 0.00 0.00 0.00 86 1017.6
20260901120038 71 0 0.0 1.0 0.00 0.00 0.00 85 1017.4
20260901114608 71 0 0.0 1.0 0.00 0.00 0.00 84 1017.4
20260901113042 72 198 0.0 1.0 0.00 0.00 0.00 84 1017.4
20260901111544 72 0 0.0 1.0 0.00 0.00 0.00 83 1017.5
20260901110039 72 0 0.0 0.0 0.00 0.00 0.00 84 1017.4
20260901104539 72 0 0.0 0.0 0.00 0.00 0.00 83 1017.4